Regional Weather Roundup
Issued by NWS

Home | Current Version | Previous Version | Graphics & Text | Print | Product List | Glossary On
Versions: 1 2 3 4 5 6 7 8 9 10 11 12 13 14 15 16 17 18 19 20 21 22 23 24 25 26 27 28 29 30 31 32 33 34 35 36 37 38 39 40 41 42 43 44 45 46 47 48 49 50
000
ASUS43 KLMK 260602
RWRKY
KENTUCKY REGIONAL WEATHER ROUNDUP
NATIONAL WEATHER SERVICE LOUISVILLE KY
100 AM EST MON JAN 26 2015

NOTE "FAIR" INDICATES FEW OR NO CLOUDS BELOW 12,000 FEET
WITH NO SIGNIFICANT WEATHER AND/OR OBSTRUCTIONS TO VISIBILITY.

KYZ001>023-026-027-061>063-070>075-260700-
WESTERN AND SOUTH CENTRAL KENTUCKY

CITY           SKY/WX    TMP DP  RH WIND       PRES   REMARKS
PADUCAH        CLOUDY    36  32  85 NW14G22   29.90R WCI  27
HENDERSON      CLOUDY    32  28  86 NW13G23   29.85R WCI  22
OWENSBORO      MIX PCPN  33  31  93 N18G30    29.82R WCI  22
HOPKINSVILLE   CLOUDY    39  37  91 NW14G24   29.80R WCI  31
BOWLING GREEN  CLOUDY    41  38  89 NW7       29.74R
GLASGOW        NOT AVBL
$$

KYZ024-025-028>034-038-045-046-053-260700-
NORTH CENTRAL KENTUCKY

CITY           SKY/WX    TMP DP  RH WIND       PRES   REMARKS
LOUISVILLE/SDF LGT SNOW  33  31  92 N14       29.73R FOG     WCI  23
LOUISVILLE/LOU LGT SNOW  32  30  92 NW10G23   29.73R FOG     WCI  24
FORT KNOX      LGT RAIN  36  34  93 NW16      29.71R WCI  26
$$

KYZ035>037-039>044-047>052-055>060-089>105-260700-
NORTHEAST KENTUCKY

CITY           SKY/WX    TMP DP  RH WIND       PRES   REMARKS
LEXINGTON      CLOUDY    39  39 100 NW7       29.64F FOG     WCI  34
COVINGTON      LGT SNOW  28  25  88 N14       29.71R FOG     WCI  17
FRANKFORT      CLOUDY    38  37  97 NW12      29.65S FOG     WCI  30
$$

KYZ054-064>069-076>088-106>120-260700-
SOUTHEAST KENTUCKY

CITY           SKY/WX    TMP DP  RH WIND       PRES   REMARKS
JACKSON        CLOUDY    41  38  89 CALM      29.62F
LONDON         LGT RAIN  42  36  79 W10       29.64S
SOMERSET       NOT AVBL
MIDDLESBORO    NOT AVBL
MONTICELLO     CLOUDY    39  38  97 W9        29.70S FOG     WCI  33
$$



USA.gov is the U.S. government's official web portal to all federal, state and local government web resources and services.